* Astronomy

Members Login
Post Info TOPIC: Comet P/2017 P1 (PANSTARRS)


L

Posts: 130044
Date:
Comet P/2017 P1 (PANSTARRS)
Permalink  
 


Orbital elements:
    P/2017 P1 (PANSTARRS)
T 2018 June 17.09649 TT                                 MPCW
q   5.4385305            (2000.0)            P               Q
n   0.04469215     Peri.  122.14342     +0.95394907     +0.28658264
a   7.8640918      Node   221.39278     -0.29990139     +0.90492209
e   0.3084350      Incl.    7.70131     -0.00635002     +0.31462106
P  22.05
From 32 observations 2017 June 25-Aug. 16.

MPEC 2017-Q12



__________________
Page 1 of 1  sorted by
 
Quick Reply

Please log in to post quick replies.



Create your own FREE Forum
Report Abuse
Powered by ActiveBoard